Content
SEND FEEDBACK

Daily
Averages
Monthly
Summary
United Kingdom

CARDIFF, WALES


Home > Europe > United Kingdom > Wales
Elevation: 220 feet     Latitude: 51 24N     Longitude: 003 21W

WEATHER
 
SELECT A DAY
Number of Records: 275,727;   Date Range: 7/1/96 - 8/18/14
 
SHARE

PRINT THIS DATA

[ ← Previous Day ]
WEATHER ALMANAC - JANUARY 19, 2013
[ Next Day → ]
[ °C ]   °F
Weather ElementAverageHighLow
Temperature31.8 °F32 °F (12:50 am)30.2 °F (5:50 am)
Dewpoint29.4 °F30.2 °F (12:50 am)26.6 °F (10:20 pm)
Humidity90.9 %100 % (5:50 am)80 % (10:20 pm)
Barometer29.44 in29.53 in (8:50 pm)29.36 in (1:20 am)
Wind Speed13.1 mph17.3 mph (3:20 am)
Weather ElementAverage
Visibility4.5 mi
Wind DirectionENE (52.6 °)

Weather ElementTotal
Precipitation---
Heating Degree Days33.9 (Base 65)
Averaged from 47 records on January 19, 2013
WEATHER CONDITIONS BREAKOUT
WIND DIRECTION BREAKOUT
WEATHER BY HOUR - JANUARY 19, 2013
[ °C ]   °F
Local TimeTemperatureDewpointHumidityBarometerVisibilityWind DirectionWind SpeedGust SpeedPrecipitationEventsConditions
12:50 AM32.0 °F30.2 °F93 %29.39 in3.7 miEast (80°)13.8 mphOvercast
1:20 AM32.0 °F30.2 °F93 %29.36 in4.3 miEast (80°)13.8 mphOvercast
1:50 AM32.0 °F30.2 °F93 %29.36 in4.3 miEast (80°)15.0 mphOvercast
2:20 AM32.0 °F30.2 °F93 %29.36 in4.3 miEast (80°)16.1 mphOvercast
2:50 AM32.0 °F30.2 °F93 %29.36 in4.3 miENE (70°)15.0 mphOvercast
3:20 AM32.0 °F30.2 °F93 %29.36 in3.1 miENE (70°)17.3 mphOvercast
3:50 AM32.0 °F30.2 °F93 %29.39 inENE (70°)15.0 mphOvercast
4:20 AM32.0 °F30.2 °F93 %29.39 inENE (60°)16.1 mphHaze
4:50 AM32.0 °F30.2 °F93 %29.39 inENE (60°)15.0 mphOvercast
5:20 AM32.0 °F30.2 °F93 %29.39 inENE (60°)11.5 mphOvercast
5:50 AM30.2 °F30.2 °F100 %29.39 inENE (60°)13.8 mphMostly Cloudy
6:20 AM30.2 °F28.4 °F93 %29.39 in3.7 miENE (60°)13.8 mphOvercast
6:50 AM30.2 °F28.4 °F93 %29.39 in4.3 miNE (50°)13.8 mphOvercast
7:20 AM30.2 °F28.4 °F93 %29.39 in3.1 miNE (50°)16.1 mphHaze
7:50 AM30.2 °F28.4 °F93 %29.42 in3.7 miENE (60°)15.0 mphOvercast
8:20 AM30.2 °F28.4 °F93 %29.42 in3.7 miENE (60°)13.8 mphMostly Cloudy
8:50 AM32.0 °F28.4 °F87 %29.42 in3.7 miENE (60°)12.7 mphMostly Cloudy
9:20 AM32.0 °F30.2 °F93 %29.42 in3.7 miNE (50°)13.8 mphMostly Cloudy
9:50 AM32.0 °F30.2 °F93 %29.44 in3.7 miENE (60°)13.8 mphMostly Cloudy
10:20 AM32.0 °F30.2 °F93 %29.44 in3.7 miENE (60°)16.1 mphMostly Cloudy
10:50 AM32.0 °F30.2 °F93 %29.44 in4.3 miNE (50°)13.8 mphMostly Cloudy
11:20 AM32.0 °F30.2 °F93 %29.44 in4.3 miNE (50°)13.8 mphMostly Cloudy
11:50 AM32.0 °F30.2 °F93 %29.42 in4.3 miNE (50°)12.7 mphMostly Cloudy
12:20 PM32.0 °F30.2 °F93 %29.42 in3.7 miNE (50°)13.8 mphMostly Cloudy
12:50 PM32.0 °F30.2 °F93 %29.44 in3.7 miNE (50°)13.8 mphMostly Cloudy
1:20 PM32.0 °F30.2 °F93 %29.44 in3.7 miNE (50°)13.8 mphMostly Cloudy
1:50 PM32.0 °F30.2 °F93 %29.44 inNE (50°)12.7 mphMostly Cloudy
2:20 PM32.0 °F30.2 °F93 %29.44 in3.1 miNE (40°)11.5 mphMostly Cloudy
2:50 PM32.0 °F30.2 °F93 %29.47 in3.1 miNE (40°)12.7 mphRainRain
3:20 PM32.0 °F30.2 °F93 %29.47 in3.1 miNE (40°)12.7 mphOvercast
3:50 PM32.0 °F30.2 °F93 %29.47 in3.1 miNE (40°)11.5 mphMostly Cloudy
4:20 PM32.0 °F30.2 °F93 %29.47 in4.3 miNNE (30°)12.7 mphMostly Cloudy
4:50 PM32.0 °F30.2 °F93 %29.50 in3.7 miNNE (30°)12.7 mphMostly Cloudy
5:20 PM32.0 °F30.2 °F93 %29.50 in5.6 miNE (40°)10.4 mphSnowLight Snow
5:50 PM32.0 °F30.2 °F93 %29.50 in5.6 miNE (40°)11.5 mphMostly Cloudy
6:20 PM32.0 °F28.4 °F87 %29.50 in5.6 miNE (40°)13.8 mphSnowLight Snow
6:50 PM32.0 °F28.4 °F87 %29.50 in5.6 miNE (40°)10.4 mphMostly Cloudy
7:20 PM32.0 °F28.4 °F87 %29.50 in5.6 miNE (50°)13.8 mphMostly Cloudy
7:50 PM32.0 °F28.4 °F87 %29.50 in5.6 miNE (50°)11.5 mphMostly Cloudy
8:20 PM32.0 °F28.4 °F87 %29.50 in6.2 miNE (50°)13.8 mphMostly Cloudy
8:50 PM32.0 °F28.4 °F87 %29.53 in6.2 miNE (50°)10.4 mphMostly Cloudy
9:20 PM32.0 °F28.4 °F87 %29.53 in6.2 miNE (50°)10.4 mphMostly Cloudy
9:50 PM32.0 °F28.4 °F87 %29.50 in6.2 miNE (40°)10.4 mphMostly Cloudy
10:20 PM32.0 °F26.6 °F80 %29.50 in6.2 miNE (40°)9.2 mphMostly Cloudy
10:50 PM32.0 °F26.6 °F80 %29.50 in6.2 miNE (50°)8.1 mphMostly Cloudy
11:20 PM32.0 °F26.6 °F80 %29.53 in6.2 miNE (40°)10.4 mphMostly Cloudy
11:50 PM32.0 °F26.6 °F80 %29.53 in6.2 miNE (40°)12.7 mphMostly Cloudy
Hourly data recorded from EGFF, located miles away from Cardiff, Wales







STORIES FROM OUR PARTNERS